Location: Cotdoussan
(43.0366°N, 0.0068°E)
Time: 02:34:21
(UTC+00:00)

ARIANE 6 FM1 Upper Stage - Pass Details

Date: 29 January 2026
Orbit: 522 x 609 km, 62.0° (Epoch: 10 February)

Event Time Altitude Azimuth Distance (km) Brightness Sun altitude
Rises 17:30:35 0° 239° (WSW) 2,712 8.3 -4.6°
Reaches altitude 10° 17:32:57 10° 248° (WSW) 1,807 7.2 -5.0°
Maximum altitude 17:36:43 36° 315° (NW) 866 3.9 -5.6°
Drops below altitude 10° 17:40:25 10° 24° (NNE) 1,781 4.8 -6.3°
Enters shadow 17:42:18 - 32° (NNE) 2,496 5.5 -6.6°
